Weather Roundup
Issued by NWS Springfield, MO

Home | Current Version | Previous Version | Text Only | Print | Product List | Glossary On
Versions: 1 2 3 4 5 6 7 8 9 10 11 12 13 14 15 16 17 18 19 20 21 22 23 24 25 26 27 28 29 30 31 32 33 34 35 36 37 38 39 40 41 42 43 44 45 46 47 48 49 50
000
NZUS99 KSGF 231607
HRRSGF

HOURLY WEATHER
NATIONAL WEATHER SERVICE SPRINGFIELD MO
1000 AM CST SUN NOV 23 2014

......SGF CWA......

CITY           SKY/WX    TMP DP  RH WIND       PRES   REMARKS
SPRINGFIELD    CLOUDY    55  53  93 SE16      29.51F FOG
JOPLIN         CLOUDY    60  55  83 S10       29.49F
WEST PLAINS    LGT RAIN  54  52  93 SE10      29.59F
ROLLA          RAIN      53  51  93 S9        29.57F FOG
OSAGE BEACH    CLOUDY    55  52  88 SE6       29.55F
BRANSON        CLOUDY    55  54  94 SE8       29.54F FOG

......SURROUNDING SGF CWA......

CITY           SKY/WX    TMP DP  RH WIND       PRES   REMARKS
CHANUTE        CLOUDY    59  55  87 S13       29.46F
PARSONS        CLOUDY    60  55  83 S16G23    29.47F
COFFEYVILLE    CLOUDY    60  55  83 S15G22    29.47F
EMPORIA        LGT RAIN  55  53  93 SE5       29.46F FOG
GROVE OK       PTSUNNY   63  57  82 S6        29.48F
ROGERS AR      CLOUDY    59  55  87 S9        29.51F
SILOAM SPRINGS CLOUDY    59  52  77 S13       29.51F
HARRISON AR    CLOUDY    54  54 100 SE8       29.54F FOG
NEAR YELLVILLE CLOUDY    55  52  88 E3        29.56F

......KANSAS AND MISSOURI......

CITY           SKY/WX    TMP DP  RH WIND       PRES   REMARKS
KANSAS CTY INT FOG       54  54 100 S7        29.48F VSB 3/4
DOWNTOWN KC    CLOUDY    56  54  93 S5        29.48F
COLUMBIA       LGT RAIN  54  52  93 SE12      29.56F FOG
SEDALIA        CLOUDY    57  53  86 S14       29.53F
ST JOSEPH      CLOUDY    54  53  97 S3        29.48F FOG
ST LOUIS       LGT RAIN  56  51  84 SE15      29.64F
SPIRIT OF STL  RAIN      53  51  93 SE9       29.62F FOG
KIRKSVILLE     LGT RAIN  53  53 100 S14       29.54F FOG
WICHITA        CLOUDY    54  50  86 SW7       29.45S
TOPEKA         LGT RAIN  57  55  93 SE5       29.47F FOG
OLATHE         CLOUDY    55  55 100 S5        29.48F FOG

......TENNESSEE......

CITY           SKY/WX    TMP DP  RH WIND       PRES   REMARKS
MEMPHIS        LGT RAIN  59  56  89 SE8       29.63F FOG
NASHVILLE      LGT RAIN  59  53  80 SE10      29.82F

......ARKANSAS.......

CITY           SKY/WX    TMP DP  RH WIND       PRES   REMARKS
FAYETTEVILLE   CLOUDY    58  55  90 S8        29.51F
FT SMITH       CLOUDY    59  56  89 E8        29.50F
LITTLE ROCK    LGT RAIN  60  57  89 S8        29.56F FOG

......OKLAHOMA.......

CITY           SKY/WX    TMP DP  RH WIND       PRES   REMARKS
TULSA          CLOUDY    60  57  89 S14G23    29.44F
PONCA CITY     CLOUDY    58  51  78 S9        29.41F
MCALESTER      CLOUDY    62  57  83 S10       29.48F
OKLAHOMA CITY  PTSUNNY   57  51  80 S18       29.40F

......IOWA............

CITY           SKY/WX    TMP DP  RH WIND       PRES   REMARKS
DES MOINES     CLOUDY    53  50  89 S6        29.50F
QUAD CITIES    CLOUDY    50  48  93 SE13      29.60F FOG

......ILLINOIS........

CITY           SKY/WX    TMP DP  RH WIND       PRES   REMARKS
QUINCY         LGT RAIN  52  49  89 SE9       29.58F FOG
CHICAGO        LGT RAIN  50  44  80 S16       29.71F




USA.gov is the U.S. government's official web portal to all federal, state and local government web resources and services.